sat.trackr.live / text

‹ back to catalog

STARLING 1

NORAD 57388 · 2023-100C

PAYLOAD ACTIVE UNKNOWN

§ Identity

Operator
Country
US
Launch date
2023-07-18
Launch site
RLLB
Launch vehicle
Mass (kg)
RCS (m²)

External: N2YO · Heavens-Above · Gunter

§ Orbital elements

Epoch: 2026-09-21T22:18:37.109952Z

Period
95.55 min
Inclination
99.5086°
Eccentricity
0.0004663
Mean motion
15.07047762 rev/d
Perigee alt
542.0 km
Apogee alt
548.5 km
Semi-major
6,923.4 km
B*
9.4545e-5
RAAN
305.9065°
Arg perigee
336.4502°
Mean anomaly
23.6505°
Rev number
17,447

§ Raw data

STARLING 11 57388U 23100C   26264.92959618  .00001327  00000+0  94545-4 0  99992 57388  99.5086 305.9065 0004663 336.4502  23.6505 15.07047762174473

JSON: /api/v1/satellites/57388 · /tle

For live sub-satellite position, see the globe view (requires WebGL).

§ Visibility from observer

Set your observer location to see the next 7 days of passes ≥ 10°. The values pass through the URL so the page stays shareable.

No JS? Fill the form by hand. The geolocation button needs JavaScript.